Location: Asheville, NC
(35.6000°N, 82.5500°W)
Time: 04:33:01
(UTC-05:00)

CUBEBUG 2 - Pass Details

Date: 12 January 2018
Orbit: 587 x 699 km, 97.6° (Epoch: 17 January)

Event Time Altitude Azimuth Distance (km) Brightness Sun altitude
Rises 18:54:40 0° 163° (SSE) 2,818 ? -15.4°
Reaches altitude 10° 18:56:48 10° 161° (SSE) 1,931 ? -15.9°
Maximum altitude 19:00:58 74° 77° (ENE) 638 ? -16.7°
Drops below altitude 10° 19:05:18 10° 352° (N) 2,002 ? -17.5°
Sets 19:07:33 0° 351° (N) 2,931 ? -18.0°
